This is the latest recevied weather packets stored in our database for station/object VA3ZFM-10. If no packets are shown the sender has not sent any weather packets the latest 10 day(s).
| Time | Temp. | Humidity | Pressure | Rain* | Wind** | Luminosity | Snow |
|---|---|---|---|---|---|---|---|
| 1777689060 | 1.67° C | 91% | 1011.2 hPa | 0 mm | - | - | - |
| 1777688756 | 1.67° C | 90% | 1011.3 hPa | 0 mm | - | - | - |
| 1777688454 | 1.67° C | 90% | 1011.2 hPa | 0 mm | - | - | - |
| 1777688151 | 1.67° C | 90% | 1011.5 hPa | 0 mm | - | - | - |
| 1777687848 | 1.67° C | 90% | 1011.4 hPa | 0 mm | - | - | - |
| 1777687546 | 2.22° C | 90% | 1011.4 hPa | 0 mm | - | - | - |
| 1777687243 | 2.22° C | 90% | 1011.3 hPa | 0 mm | - | - | - |
| 1777686940 | 2.22° C | 89% | 1011.5 hPa | 0 mm | - | - | - |
| 1777686637 | 2.22° C | 89% | 1011.3 hPa | 0 mm | - | - | - |
| 1777686334 | 2.22° C | 89% | 1011.5 hPa | 0 mm | - | - | - |
| 1777686031 | 2.22° C | 90% | 1011.6 hPa | 0 mm | - | - | - |
| 1777685726 | 2.22° C | 90% | 1011.4 hPa | 0 mm | - | - | - |
| 1777685423 | 2.22° C | 90% | 1011.6 hPa | 0 mm | - | - | - |
| 1777685120 | 2.22° C | 90% | 1011.6 hPa | 0 mm | - | - | - |
| 1777684818 | 2.22° C | 89% | 1011.4 hPa | 0 mm | - | - | - |
| 1777684514 | 2.78° C | 89% | 1011.7 hPa | 0 mm | - | - | - |
| 1777684211 | 2.78° C | 88% | 1011.3 hPa | 0 mm | - | - | - |
| 1777683908 | 2.78° C | 86% | 1011.6 hPa | 0 mm | - | - | - |
| 1777683604 | 3.33° C | 84% | 1011.3 hPa | 0 mm | - | - | - |
| 1777683302 | 3.89° C | 82% | 1011.4 hPa | 0 mm | - | - | - |
| 1777683000 | 4.44° C | 77% | 1011.3 hPa | 0 mm | - | - | - |
| 1777682695 | 4.44° C | 73% | 1011.1 hPa | 0 mm | - | - | - |
| 1777682392 | 4.44° C | 72% | 1011.3 hPa | 0 mm | - | - | - |
| 1777682090 | 4.44° C | 72% | 1011 hPa | 0 mm | - | - | - |
| 1777681786 | 5° C | 71% | 1010.7 hPa | 0 mm | - | - | - |
* Rain latest hour (hover to see other rain measurements)
** Current wind speed in m/s (hover to see current wind gust speed)